This demonstration page uses our WeatherBlox Daily Observations layout. Learn more.

Hourly Observations for July 22, 2019

Temp ( °F °C ) Dew Point ( °F °C ) Humidity (%) Winds ( mph kmh ) Pressure ( in mb ) Visibility ( mi km ) Precip ( " mm )
12:15 am 00:15 Cloudy 66 19 61 16.1 83 83 NNE 7 11 30.15 1021 10 16.09344 0 0
12:35 am 00:35 Cloudy 65 18.5 60 15.6 83 83 NNE 8 13 30.15 1021 10 16.09344 0 0
12:55 am 00:55 Cloudy 65 18.1 58 14.3 79 79 NNE 7 11 30.15 1021 10 16.09344 0 0
1:15 am 01:15 Cloudy 64 17.8 58 14.2 80 80 NNE 6 9 30.18 1022 10 16.09344 0 0
1:35 am 01:35 Cloudy 64 17.6 58 14.6 83 83 N 6 9 30.21 1023 10 16.09344 0 0
1:55 am 01:55 Cloudy 63 17.3 59 15.2 88 88 N 5 7 30.21 1023 10 16.09344 0 0
2:15 am 02:15 Cloudy 64 17.5 60 15.7 89 89 N 5 7 30.21 1023 10 16.09344 0 0
2:35 am 02:35 Cloudy 63 17.3 60 15.8 91 91 N 3 6 30.21 1023 10 16.09344 0 0
2:55 am 02:55 Partly Cloudy 62 16.6 61 15.9 96 96 Calm 30.21 1023 10 16.09344 0 0
3:15 am 03:15 Clear 61 16.3 61 16 98 98 NNW 5 7 30.21 1023 10 16.09344 0 0
3:35 am 03:35 Clear 61 16.1 61 16 99 99 N 7 11 30.21 1023 10 16.09344 0 0
3:55 am 03:55 Clear 61 16.1 61 16.1 100 100 N 6 9 30.21 1023 10 16.09344 0 0
4:15 am 04:15 Clear 61 16 61 16 100 100 N 7 11 30.21 1023 10 16.09344 0 0
4:35 am 04:35 Clear 60 15.7 60 15.5 99 99 N 6 9 30.21 1023 10 16.09344 0 0
4:55 am 04:55 Clear 60 15.6 60 15.5 99 99 N 8 13 30.21 1023 10 16.09344 0 0
5:15 am 05:15 Clear 60 15.5 60 15.3 99 99 N 6 9 30.21 1023 10 16.09344 0 0
5:35 am 05:35 Clear 60 15.3 59 15.1 99 99 NNE 9 15 30.21 1023 10 16.09344 0 0
5:55 am 05:55 Clear 59 15.1 59 15 99 99 N 8 13 30.21 1023 10 16.09344 0 0
6:15 am 06:15 Clear 59 15 58 14.6 97 97 N 5 7 30.27 1025 10 16.09344 0 0
6:35 am 06:35 Sunny 58 14.6 58 14.4 99 99 N 6 9 30.27 1025 10 16.09344 0 0
6:55 am 06:55 Sunny 58 14.6 58 14.3 98 98 N 5 7 30.27 1025 10 16.09344 0 0
7:15 am 07:15 Partly Cloudy 59 15 58 14.5 97 97 N 5 7 30.27 1025 10 16.09344 0 0
7:35 am 07:35 Mostly Cloudy 60 15.5 59 15 97 97 N 5 7 30.27 1025 10 16.09344 0 0
7:55 am 07:55 Mostly Cloudy 61 16.1 60 15.3 95 95 N 5 7 30.27 1025 10 16.09344 0 0
8:15 am 08:15 Mostly Cloudy 62 16.6 60 15.6 94 94 N 7 11 30.27 1025 10 16.09344 0 0
8:35 am 08:35 Mostly Cloudy 64 17.6 61 16 90 90 N 3 6 30.27 1025 10 16.09344 0 0
8:55 am 08:55 Cloudy 64 17.9 60 15.5 86 86 N 7 11 30.3 1026 10 16.09344 0 0
9:15 am 09:15 Mostly Cloudy 65 18.5 60 15.6 83 83 NE 6 9 30.3 1026 10 16.09344 0 0
9:35 am 09:35 Partly Cloudy 67 19.4 61 15.9 80 80 NNE 9 15 30.27 1025 10 16.09344 0 0
9:55 am 09:55 Sunny 68 20 60 15.3 74 74 NNE 7 11 30.27 1025 10 16.09344 0 0
10:15 am 10:15 Sunny 69 20.5 60 15.4 73 73 NNE 8 13 30.24 1024 10 16.09344 0 0
10:35 am 10:35 Sunny 70 20.9 58 14.4 67 67 NE 9 15 30.24 1024 10 16.09344 0 0
10:55 am 10:55 Sunny 70 21.3 58 14.4 65 65 NNE 8 13 30.24 1024 10 16.09344 0 0
11:15 am 11:15 Sunny 71 21.6 58 14.7 65 65 N 10 17 30.24 1024 10 16.09344 0 0
11:35 am 11:35 Sunny 72 22 59 15.2 65 65 NNE 9 15 30.24 1024 10 16.09344 0 0
11:55 am 11:55 Sunny 73 22.5 60 15.6 65 65 NNE 10 17 30.21 1023 10 16.09344 0 0
12:15 pm 12:15 Sunny 72 22.4 59 14.8 62 62 NNE 9 15 30.24 1024 10 16.09344 0 0
12:35 pm 12:35 Sunny 73 22.7 59 14.8 61 61 NNE 8 13 30.21 1023 10 16.09344 0 0
12:55 pm 12:55 Sunny 73 23 57 14 57 57 NNE 10 17 30.21 1023 10 16.09344 0 0
1:15 pm 13:15 Sunny 74 23.1 58 14.6 59 59 NE 10 17 30.21 1023 10 16.09344 0 0
1:35 pm 13:35 Partly Cloudy 74 23.2 57 13.9 56 56 NE 12 19 30.21 1023 10 16.09344 0 0
1:55 pm 13:55 Sunny 74 23.4 58 14.5 57 57 NE 12 19 30.21 1023 10 16.09344 0 0
2:15 pm 14:15 Partly Cloudy 75 23.7 59 15 58 58 NE 10 17 30.21 1023 10 16.09344 0 0
2:35 pm 14:35 Partly Cloudy 75 23.9 60 15.3 59 59 NE 10 17 30.21 1023 10 16.09344 0 0
2:55 pm 14:55 Partly Cloudy 75 23.7 58 14.3 56 56 NE 9 15 30.18 1022 10 16.09344 0 0
3:15 pm 15:15 Partly Cloudy 75 23.8 59 14.8 57 57 NE 10 17 30.21 1023 10 16.09344 0 0
3:35 pm 15:35 Partly Cloudy 76 24.4 60 15.6 58 58 ENE 8 13 30.18 1022 10 16.09344 0 0
3:55 pm 15:55 Mostly Cloudy 75 23.9 59 14.9 57 57 ENE 9 15 30.18 1022 10 16.09344 0 0
4:15 pm 16:15 Partly Cloudy 75 24.1 60 15.4 58 58 NE 9 15 30.18 1022 10 16.09344 0 0
4:35 pm 16:35 Partly Cloudy 76 24.3 60 15.5 58 58 NE 12 19 30.18 1022 10 16.09344 0 0
4:55 pm 16:55 Partly Cloudy 76 24.4 60 15.7 58 58 ENE 12 19 30.18 1022 10 16.09344 0 0
5:15 pm 17:15 Partly Cloudy 75 24.1 59 15 57 57 E 9 15 30.18 1022 10 16.09344 0 0
5:35 pm 17:35 Partly Cloudy 75 23.8 59 15 58 58 NE 8 13 30.18 1022 10 16.09344 0 0
5:55 pm 17:55 Partly Cloudy 75 24.1 60 15.3 58 58 ENE 13 20 30.18 1022 10 16.09344 0 0
6:15 pm 18:15 Mostly Cloudy 75 23.7 58 14.7 57 57 ENE 10 17 30.18 1022 10 16.09344 0 0
6:35 pm 18:35 Partly Cloudy 74 23.6 59 14.8 58 58 ENE 10 17 30.18 1022 10 16.09344 0 0
6:55 pm 18:55 Partly Cloudy 74 23.3 59 15 60 60 NE 9 15 30.18 1022 10 16.09344 0 0
7:15 pm 19:15 Sunny 73 23 58 14.6 59 59 ENE 6 9 30.18 1022 10 16.09344 0 0
7:35 pm 19:35 Sunny 73 22.6 59 15.1 63 63 ENE 7 11 30.18 1022 10 16.09344 0 0
7:55 pm 19:55 Sunny 72 22 60 15.8 68 68 ENE 5 7 30.21 1023 10 16.09344 0 0
8:15 pm 20:15 Sunny 71 21.4 61 15.9 71 71 ENE 6 9 30.21 1023 10 16.09344 0 0
8:35 pm 20:35 Sunny 69 20.3 63 17.2 82 82 ENE 3 6 30.21 1023 10 16.09344 0 0
8:55 pm 20:55 Sunny 67 19.2 62 16.7 86 86 E 6 9 30.21 1023 10 16.09344 0 0
9:15 pm 21:15 Clear 66 18.7 61 16.2 85 85 E 5 7 30.21 1023 10 16.09344 0 0
9:35 pm 21:35 Clear 65 18.5 60 15.8 84 84 E 5 7 30.24 1024 10 16.09344 0 0
9:55 pm 21:55 Clear 65 18.2 60 15.5 84 84 E 5 7 30.24 1024 10 16.09344 0 0
10:15 pm 22:15 Clear 64 17.7 60 15.4 86 86 E 5 7 30.27 1025 10 16.09344 0 0
10:35 pm 22:35 Clear 64 17.7 60 15.5 87 87 E 3 6 30.27 1025 10 16.09344 0 0
10:55 pm 22:55 Clear 64 17.5 59 15.2 86 86 Calm 30.27 1025 10 16.09344 0 0
11:15 pm 23:15 Clear 62 16.6 60 15.4 93 93 Calm 30.27 1025 10 16.09344 0 0
11:35 pm 23:35 Clear 63 17.1 60 15.8 92 92 Calm 30.27 1025 10 16.09344 0 0
11:55 pm 23:55 Clear 62 16.8 60 15.4 92 92 Calm 30.27 1025 10 16.09344 0 0

Powered by AerisWeather